EW6749 Weather Reports


time (UTC)temp
C
wind
direction
speed
KPH
gust
KPH
rain 1hr
cm
rain 24hr
cm
rain mn
cm
humidity
%
barometer
mb
20260505032018 13 291 3.2 8.0 0.00 0.00 0.00 67 1015.0
20260505031016 13 293 3.2 6.4 0.00 0.00 0.00 66 1014.9
20260505030036 13 288 3.2 8.0 0.00 0.00 0.00 67 1015.0
20260505025016 14 284 1.6 4.8 0.00 0.00 0.00 68 1014.9
20260505024016 14 285 1.6 4.8 0.00 0.00 0.00 68 1014.8
20260505023016 14 288 3.2 6.4 0.00 0.00 0.00 69 1015.0
20260505022017 14 312 1.6 6.4 0.00 0.00 0.00 69 1014.9
20260505021036 14 280 4.8 9.7 0.00 0.00 0.00 68 1014.8
20260505020016 15 64 1.6 4.8 0.00 0.00 0.00 66 1014.7
20260505015037 15 298 1.6 14.5 0.00 0.00 0.00 65 1014.8
20260505014017 15 336 1.6 6.4 0.00 0.00 0.00 63 1014.8
20260505013017 15 325 1.6 9.7 0.00 0.00 0.00 63 1014.8
20260505012018 16 102 1.6 6.4 0.00 0.00 0.00 64 1014.9
20260505011017 16 73 1.6 6.4 0.00 0.00 0.00 63 1014.9
20260505010018 16 268 1.6 8.0 0.00 0.00 0.00 62 1015.0
20260505005018 16 289 3.2 6.4 0.00 0.00 0.00 60 1015.1
20260505004019 16 299 1.6 4.8 0.00 0.00 0.00 61 1015.1
20260505003019 16 296 1.6 6.4 0.00 0.00 0.00 63 1015.2
20260505002018 15 293 3.2 6.4 0.00 0.00 0.00 64 1015.2
20260505001016 15 283 4.8 11.3 0.00 0.00 0.00 64 1015.2
20260505000016 15 301 3.2 11.3 0.00 0.00 0.00 65 1015.2
20260504235017 15 288 4.8 11.3 0.00 0.00 0.00 67 1015.1
20260504234016 14 314 3.2 6.4 0.00 0.00 0.00 69 1015.2
20260504233016 14 304 4.8 14.5 0.00 0.00 0.00 71 1015.2
20260504232017 15 307 3.2 8.0 0.00 0.00 0.00 71 1015.1
20260504231017 15 301 4.8 12.9 0.00 0.00 0.00 67 1015.1
20260504230016 16 305 3.2 11.3 0.00 0.00 0.00 66 1015.2
20260504225037 16 297 4.8 9.7 0.00 0.00 0.00 64 1015.1
20260504224018 16 312 3.2 11.3 0.00 0.00 0.00 62 1015.1
20260504223017 17 307 3.2 12.9 0.00 0.00 0.00 60 1015.2
20260504222018 17 296 3.2 9.7 0.00 0.00 0.00 59 1015.1
20260504221017 17 299 1.6 8.0 0.00 0.00 0.00 59 1015.2
20260504220018 17 304 4.8 11.3 0.00 0.00 0.00 59 1015.4
20260504215015 17 322 3.2 11.3 0.00 0.00 0.00 59 1015.5
20260504214016 17 317 4.8 14.5 0.00 0.00 0.00 60 1015.6
20260504213056 16 306 4.8 12.9 0.00 0.00 0.00 63 1015.6
20260504212016 16 324 4.8 11.3 0.00 0.00 0.00 62 1015.6
20260504211016 16 301 4.8 9.7 0.00 0.00 0.00 63 1015.6
20260504210016 16 318 6.4 11.3 0.00 0.00 0.00 63 1015.7
20260504205017 16 321 3.2 11.3 0.00 0.00 0.00 63 1015.7
20260504204016 16 341 1.6 14.5 0.00 0.00 0.00 62 1015.7
20260504203016 16 317 4.8 9.7 0.00 0.00 0.00 61 1015.7
20260504202017 16 311 3.2 8.0 0.00 0.00 0.00 62 1015.6
20260504201018 16 298 3.2 9.7 0.00 0.00 0.00 61 1015.7
20260504200017 16 284 3.2 8.0 0.00 0.00 0.00 61 1015.8
20260504195017 16 293 3.2 8.0 0.00 0.00 0.00 62 1015.9
20260504194018 16 304 3.2 9.7 0.00 0.00 0.00 60 1015.8
20260504193016 15 318 1.6 6.4 0.00 0.00 0.00 65 1015.8
20260504192017 15 293 4.8 12.9 0.00 0.00 0.00 66 1015.9
20260504191016 15 286 4.8 11.3 0.00 0.00 0.00 65 1015.9
20260504190016 16 300 3.2 6.4 0.00 0.00 0.00 62 1015.9
20260504185015 17 286 4.8 11.3 0.00 0.00 0.00 59 1015.8
20260504184015 17 287 0.0 3.2 0.00 0.00 0.00 57 1015.7
20260504183015 17 84 0.0 6.4 0.00 0.00 0.00 58 1015.7
20260504182015 17 355 0.0 3.2 0.00 0.00 0.00 56 1015.8
20260504181016 17 86 0.0 4.8 0.00 0.00 0.00 56 1015.8
20260504180037 17 64 1.6 4.8 0.00 0.00 0.00 56 1015.6
20260504175016 17 98 1.6 9.7 0.00 0.00 0.00 56 1015.5
20260504174016 16 330 3.2 8.0 0.00 0.00 0.00 59 1015.5
20260504173017 16 46 1.6 4.8 0.00 0.00 0.00 59 1015.5
20260504172018 16 82 0.0 1.6 0.00 0.00 0.00 60 1015.5
20260504171038 15 329 1.6 6.4 0.00 0.00 0.00 61 1015.4
20260504151017 13 300 1.6 4.8 0.00 0.00 0.00 69 1015.5
20260504141057 10 289 3.2 4.8 0.00 0.00 0.00 80 1015.2
20260504081036 9 282 1.6 4.8 0.00 0.00 0.00 86 1015.2
20260504050016 11 300 1.6 8.0 0.00 0.00 0.00 75 1014.8
20260504045037 11 277 0.0 3.2 0.00 0.00 0.00 74 1014.7
20260504044036 11 279 1.6 8.0 0.00 0.00 0.00 73 1014.5
20260504043016 12 304 1.6 4.8 0.00 0.00 0.00 71 1014.5
20260504042017 12 345 1.6 4.8 0.00 0.00 0.00 71 1014.3
20260504041017 12 349 3.2 9.7 0.00 0.00 0.00 70 1014.2
20260504040017 12 339 4.8 12.9 0.00 0.00 0.00 69 1014.1
20260504035018 12 328 4.8 17.7 0.00 0.00 0.00 71 1013.8
20260504034018 12 334 4.8 14.5 0.00 0.00 0.00 71 1013.8
20260504033018 12 352 3.2 11.3 0.00 0.00 0.00 70 1013.7